Hibbing, MN

12:33 PM CDT on September 20, 2017 (GMT -0500)
Chisholm-hibbing

Weather History for KHIB - March, 2013

Change the Weather History Date:

Sunday, March 10, 2013

  Actual Average Record
Temperature  
Mean Temperature 26 °F -  
Max Temperature 32 °F 32 °F 62 °F (2012)
Min Temperature 21 °F 8 °F -22 °F (1963)
Degree Days  
Heating Degree Days 38    
Moisture  
Dew Point 22 °F    
Average Humidity 76    
Maximum Humidity 86    
Minimum Humidity 66    
Precipitation  
Precipitation 0.00 in - - ()
Sea Level Pressure  
Sea Level Pressure 29.98 in    
Wind  
Wind Speed 13 mph (North)    
Max Wind Speed 18 mph    
Max Gust Speed 23 mph    
Visibility 9 miles    
Events      
Averages and records for this station are not official NWS values.
T = Trace of Precipitation, MM = Missing Value Source: NWS Daily Summary

Daily Weather History Graph

Daily Weather History Graph

Search for Another Location

Airport or City:

Trip Planner

Search our weather history database for the weather conditions in past years. The results will help you decide how hot, cold, wet, or windy it might be!

Date:

Astronomy

Mar. 10, 2013 Rise Set
Actual Time 7:33 AM CDT 7:10 PM CDT
Civil Twilight 7:03 AM CDT 7:40 PM CDT
Nautical Twilight 6:27 AM CDT 8:16 PM CDT
Astronomical Twilight 5:51 AM CDT 8:52 PM CDT
Moon 6:36 AM CDT (3/10) 6:17 PM CDT (3/10)
Length of Visible Light 12h 37m
Length of Day
11h 36m
Waning Crescent, 2% of the Moon is Illuminated
Mar 10
Waning Crescent
Mar 11
New
Mar 19
First Quarter
Mar 27
Full
Apr 2
Last Quarter

Hourly Weather History & Observations

Time (CDT) Temp. Windchill Dew Point Humidity Pressure Visibility Wind Dir Wind Speed Gust Speed Precip Events Conditions
12:03 AM 32.0 °F 22.1 °F 26.6 °F 80% 29.78 in 10.0 mi NNW 13.8 mph - N/A   Overcast
12:11 AM 32.0 °F 22.1 °F 26.6 °F 80% 29.78 in 10.0 mi NNW 13.8 mph - N/A   Overcast
12:53 AM 32.0 °F 20.8 °F 27.0 °F 82% 29.85 in 10.0 mi NNW 17.3 mph - N/A   Overcast
1:53 AM 32.0 °F 23.0 °F 27.0 °F 82% 29.87 in 10.0 mi NNW 11.5 mph - N/A   Overcast
3:24 AM 32.0 °F 22.1 °F 26.6 °F 80% 29.82 in 10.0 mi NNW 13.8 mph - N/A   Overcast
3:53 AM 32.0 °F 21.6 °F 27.0 °F 82% 29.87 in 8.0 mi NNW 15.0 mph - N/A   Overcast
4:53 AM 32.0 °F 23.0 °F 27.0 °F 82% 29.88 in 8.0 mi NNW 11.5 mph 23.0 mph 0.00 in   Overcast
5:24 AM 32.0 °F 23.6 °F 26.6 °F 80% 29.85 in 10.0 mi North 10.4 mph - N/A   Overcast
5:35 AM 32.0 °F 24.8 °F 26.6 °F 80% 29.85 in 10.0 mi North 8.1 mph - N/A   Overcast
5:53 AM 30.9 °F 19.1 °F 26.1 °F 82% 29.93 in 9.0 mi NW 18.4 mph - 0.00 in   Overcast
6:01 AM 30.2 °F 18.1 °F 26.6 °F 86% 29.86 in 8.0 mi NNW 18.4 mph - 0.00 in   Overcast
7:53 AM 28.0 °F 16.1 °F 23.0 °F 81% 29.99 in 5.0 mi NNW 16.1 mph - N/A   Haze
8:53 AM 27.0 °F 16.7 °F 23.0 °F 85% 30.00 in 7.0 mi NNW 11.5 mph - N/A   Overcast
9:53 AM 28.0 °F 16.5 °F 23.0 °F 81% 30.03 in 8.0 mi NNW 15.0 mph - 0.00 in   Overcast
10:53 AM 28.0 °F 18.6 °F 21.9 °F 78% 30.06 in 8.0 mi NNW 10.4 mph 20.7 mph 0.00 in   Overcast
11:44 AM 28.4 °F 18.5 °F 21.2 °F 74% 30.01 in 7.0 mi North 11.5 mph - N/A   Overcast
11:53 AM 28.0 °F 17.5 °F 21.9 °F 78% 30.08 in 7.0 mi NNW 12.7 mph - N/A   Overcast
12:16 PM 28.4 °F 18.5 °F 21.2 °F 74% 30.02 in 9.0 mi NNW 11.5 mph - N/A   Overcast
12:53 PM 28.9 °F 18.6 °F 21.0 °F 72% 30.05 in 10.0 mi North 12.7 mph - N/A   Overcast
1:53 PM 28.0 °F 17.0 °F 19.9 °F 72% 30.08 in 10.0 mi North 13.8 mph 20.7 mph 0.00 in   Overcast
2:53 PM 28.0 °F 17.5 °F 19.0 °F 69% 30.05 in 10.0 mi North 12.7 mph - N/A   Overcast
3:53 PM 28.0 °F 17.0 °F 19.0 °F 69% 30.04 in 10.0 mi North 13.8 mph - N/A   Overcast
4:53 PM 28.0 °F 19.3 °F 19.0 °F 69% 30.08 in 10.0 mi North 9.2 mph - N/A   Overcast
5:53 PM 27.0 °F 16.1 °F 18.0 °F 69% 30.07 in 10.0 mi North 12.7 mph 19.6 mph N/A   Overcast
6:53 PM 26.1 °F 16.2 °F 17.1 °F 69% 30.07 in 10.0 mi North 10.4 mph - N/A   Overcast
7:53 PM 26.1 °F 17.6 °F 17.1 °F 69% 30.06 in 10.0 mi North 8.1 mph - N/A   Overcast
8:53 PM 26.1 °F 17.6 °F 17.1 °F 69% 30.07 in 10.0 mi NNE 8.1 mph - N/A   Overcast
9:53 PM 25.0 °F 14.8 °F 15.1 °F 66% 30.06 in 10.0 mi NE 10.4 mph - N/A   Overcast
10:53 PM 23.0 °F 13.9 °F 15.1 °F 72% 30.07 in 10.0 mi NE 8.1 mph - N/A   Overcast
11:53 PM 21.9 °F 11.7 °F 14.0 °F 72% 30.05 in 10.0 mi ENE 9.2 mph - N/A   Overcast
12:53 AM 21.9 °F 14.5 °F 14.0 °F 72% 30.03 in 10.0 mi NNE 5.8 mph - N/A   Overcast